Time,TemperatureF,DewpointF,PressureIn,WindDirection,WindDirectionDegrees,WindSpeedMPH,WindSpeedGustMPH,Humidity,HourlyPrecipIn,Conditions,Clouds,dailyrainin,SoftwareType,DateUTC
2013-11-11 00:01:00,44.8,40.6,30.08,North,0,0.0,0.4,85,0.00,,,0.00,WUHU216HW,2013-11-11 08:01:00,
2013-11-11 00:06:00,44.6,40.4,30.08,North,0,0.0,0.0,85,0.00,,,0.00,WUHU216HW,2013-11-11 08:06:00,
2013-11-11 00:11:00,44.6,40.4,30.08,North,0,0.0,0.4,85,0.00,,,0.00,WUHU216HW,2013-11-11 08:11:00,
2013-11-11 00:16:00,44.5,40.2,30.08,North,0,0.0,0.4,85,0.00,,,0.00,WUHU216HW,2013-11-11 08:16:00,
2013-11-11 00:21:00,44.3,40.1,30.08,North,0,0.0,0.0,85,0.00,,,0.00,WUHU216HW,2013-11-11 08:21:00,
2013-11-11 00:26:00,44.3,40.1,30.08,North,0,0.0,0.0,85,0.00,,,0.00,WUHU216HW,2013-11-11 08:26:00,
2013-11-11 00:31:00,44.3,40.1,30.08,North,0,0.0,0.0,85,0.00,,,0.00,WUHU216HW,2013-11-11 08:31:00,
2013-11-11 00:36:00,44.1,39.9,30.08,North,0,0.0,0.0,85,0.00,,,0.00,WUHU216HW,2013-11-11 08:36:00,
2013-11-11 00:41:00,43.9,40.0,30.08,North,0,0.0,0.4,86,0.00,,,0.00,WUHU216HW,2013-11-11 08:41:00,
2013-11-11 00:46:00,43.9,40.0,30.08,ENE,68,1.1,1.1,86,0.00,,,0.00,WUHU216HW,2013-11-11 08:46:00,
2013-11-11 00:51:00,43.9,40.0,30.08,ENE,68,0.9,1.1,86,0.00,,,0.00,WUHU216HW,2013-11-11 08:51:00,
2013-11-11 00:56:00,43.9,40.3,30.08,ENE,68,0.2,0.9,87,0.00,,,0.00,WUHU216HW,2013-11-11 08:56:00,
2013-11-11 01:01:00,43.9,40.3,30.07,ENE,68,0.0,0.4,87,0.00,,,0.00,WUHU216HW,2013-11-11 09:01:00,
2013-11-11 01:06:00,43.7,40.2,30.08,NNE,23,0.4,0.4,87,0.00,,,0.00,WUHU216HW,2013-11-11 09:06:00,
2013-11-11 01:11:00,43.7,40.2,30.08,NNE,23,0.4,0.4,87,0.00,,,0.00,WUHU216HW,2013-11-11 09:11:00,
2013-11-11 01:16:00,43.9,40.3,30.07,NE,45,0.4,1.1,87,0.00,,,0.00,WUHU216HW,2013-11-11 09:16:00,
2013-11-11 01:21:00,44.1,40.8,30.07,West,270,0.2,1.1,88,0.00,,,0.00,WUHU216HW,2013-11-11 09:21:00,
2013-11-11 01:26:00,43.9,40.3,30.07,West,270,0.0,0.2,87,0.00,,,0.00,WUHU216HW,2013-11-11 09:26:00,
2013-11-11 01:31:00,43.9,40.3,30.07,West,270,0.0,0.4,87,0.00,,,0.00,WUHU216HW,2013-11-11 09:31:00,
2013-11-11 01:36:00,43.9,40.6,30.07,West,270,0.0,0.4,88,0.00,,,0.00,WUHU216HW,2013-11-11 09:36:00,
2013-11-11 01:41:00,43.7,40.4,30.07,ENE,68,0.2,0.2,88,0.00,,,0.00,WUHU216HW,2013-11-11 09:41:00,
2013-11-11 01:46:00,43.6,40.2,30.07,ENE,68,0.0,0.2,88,0.00,,,0.00,WUHU216HW,2013-11-11 09:46:00,
2013-11-11 01:51:00,43.6,40.2,30.07,ENE,68,0.0,0.0,88,0.00,,,0.00,WUHU216HW,2013-11-11 09:51:00,
2013-11-11 01:56:00,43.4,40.1,30.08,ENE,68,0.0,0.4,88,0.00,,,0.00,WUHU216HW,2013-11-11 09:56:00,
2013-11-11 02:01:00,43.4,40.1,30.08,ENE,68,0.0,0.4,88,0.00,,,0.00,WUHU216HW,2013-11-11 10:01:00,
2013-11-11 02:06:00,43.2,39.6,30.08,ESE,113,0.0,0.7,87,0.00,,,0.00,WUHU216HW,2013-11-11 10:06:00,
2013-11-11 02:11:00,43.4,40.1,30.08,SSE,158,0.0,0.7,88,0.00,,,0.00,WUHU216HW,2013-11-11 10:11:00,
2013-11-11 02:16:00,43.4,40.1,30.08,SSW,203,0.0,0.7,88,0.00,,,0.00,WUHU216HW,2013-11-11 10:16:00,
2013-11-11 02:21:00,43.4,40.1,30.08,WSW,248,0.2,0.9,88,0.00,,,0.00,WUHU216HW,2013-11-11 10:21:00,
2013-11-11 02:26:00,43.2,39.6,30.08,SW,225,0.0,0.9,87,0.00,,,0.00,WUHU216HW,2013-11-11 10:26:00,
2013-11-11 02:31:00,43.0,39.4,30.07,SE,135,0.4,0.4,87,0.00,,,0.00,WUHU216HW,2013-11-11 10:31:00,
2013-11-11 02:36:00,42.8,39.3,30.07,ESE,113,0.0,0.4,87,0.00,,,0.00,WUHU216HW,2013-11-11 10:36:00,
2013-11-11 02:41:00,42.7,39.1,30.07,ESE,113,0.0,0.4,87,0.00,,,0.00,WUHU216HW,2013-11-11 10:41:00,
2013-11-11 02:46:00,42.5,38.9,30.08,SE,135,0.0,0.0,87,0.00,,,0.00,WUHU216HW,2013-11-11 10:46:00,
2013-11-11 02:51:00,42.5,38.9,30.08,SE,135,0.0,0.0,87,0.00,,,0.00,WUHU216HW,2013-11-11 10:51:00,
2013-11-11 02:56:00,42.3,38.7,30.08,ENE,68,0.4,0.4,87,0.00,,,0.00,WUHU216HW,2013-11-11 10:56:00,
2013-11-11 03:01:00,42.3,38.7,30.09,ENE,68,0.4,0.9,87,0.00,,,0.00,WUHU216HW,2013-11-11 11:01:00,
2013-11-11 03:06:00,42.3,38.7,30.08,ENE,68,1.1,1.1,87,0.00,,,0.00,WUHU216HW,2013-11-11 11:06:00,
2013-11-11 03:11:00,42.7,39.7,30.08,North,0,0.0,1.1,89,0.00,,,0.00,WUHU216HW,2013-11-11 11:11:00,
2013-11-11 03:16:00,43.0,40.1,30.08,North,0,0.0,1.1,89,0.00,,,0.00,WUHU216HW,2013-11-11 11:16:00,
2013-11-11 03:21:00,43.0,40.1,30.08,WNW,293,0.2,1.1,89,0.00,,,0.00,WUHU216HW,2013-11-11 11:21:00,
2013-11-11 03:26:00,43.0,40.1,30.08,WNW,293,0.2,1.1,89,0.00,,,0.00,WUHU216HW,2013-11-11 11:26:00,
2013-11-11 03:31:00,43.2,40.2,30.09,WNW,293,0.4,0.4,89,0.00,,,0.00,WUHU216HW,2013-11-11 11:31:00,
2013-11-11 03:36:00,43.4,40.4,30.10,WNW,293,0.0,0.9,89,0.00,,,0.00,WUHU216HW,2013-11-11 11:36:00,
2013-11-11 03:41:00,43.6,40.6,30.10,North,0,0.0,0.9,89,0.00,,,0.00,WUHU216HW,2013-11-11 11:41:00,
2013-11-11 03:46:00,43.9,41.0,30.09,East,90,0.4,0.7,89,0.00,,,0.00,WUHU216HW,2013-11-11 11:46:00,
2013-11-11 03:51:00,44.1,41.1,30.09,ENE,68,0.0,0.9,89,0.00,,,0.00,WUHU216HW,2013-11-11 11:51:00,
2013-11-11 03:56:00,44.3,41.6,30.09,ENE,68,0.0,0.9,90,0.00,,,0.00,WUHU216HW,2013-11-11 11:56:00,
2013-11-11 04:01:00,44.6,41.9,30.09,NE,45,1.1,1.3,90,0.00,,,0.00,WUHU216HW,2013-11-11 12:01:00,
2013-11-11 04:06:00,45.0,42.6,30.09,East,90,1.3,2.2,91,0.00,,,0.00,WUHU216HW,2013-11-11 12:06:00,
2013-11-11 04:11:00,45.5,43.1,30.09,South,180,0.9,2.2,91,0.00,,,0.00,WUHU216HW,2013-11-11 12:11:00,
2013-11-11 04:16:00,45.7,43.3,30.09,South,180,0.4,1.3,91,0.00,,,0.00,WUHU216HW,2013-11-11 12:16:00,
2013-11-11 04:21:00,45.4,42.9,30.09,South,180,0.4,1.3,91,0.00,,,0.00,WUHU216HW,2013-11-11 12:21:00,
2013-11-11 04:26:00,45.4,42.9,30.09,SSE,158,0.0,0.9,91,0.00,,,0.00,WUHU216HW,2013-11-11 12:26:00,
2013-11-11 04:31:00,45.4,42.9,30.09,SE,135,1.1,1.1,91,0.00,,,0.00,WUHU216HW,2013-11-11 12:31:00,
2013-11-11 04:36:00,45.4,42.9,30.08,East,90,1.1,1.1,91,0.00,,,0.00,WUHU216HW,2013-11-11 12:36:00,
2013-11-11 04:41:00,45.4,42.9,30.07,East,90,0.7,1.8,91,0.00,,,0.00,WUHU216HW,2013-11-11 12:41:00,
2013-11-11 04:46:00,45.4,42.9,30.07,ESE,113,0.2,1.8,91,0.00,,,0.00,WUHU216HW,2013-11-11 12:46:00,
2013-11-11 04:51:00,45.5,43.1,30.07,ESE,113,1.1,1.3,91,0.00,,,0.00,WUHU216HW,2013-11-11 12:51:00,
2013-11-11 04:56:00,46.1,43.7,30.06,ESE,113,2.7,3.4,91,0.00,,,0.00,WUHU216HW,2013-11-11 12:56:00,
2013-11-11 05:01:00,46.6,44.5,30.06,ENE,68,0.4,3.4,92,0.00,,,0.00,WUHU216HW,2013-11-11 13:01:00,
2013-11-11 05:06:00,47.0,44.6,30.06,SSW,203,0.4,3.4,91,0.00,,,0.00,WUHU216HW,2013-11-11 13:06:00,
2013-11-11 05:11:00,47.0,44.6,30.06,South,180,0.4,3.4,91,0.00,,,0.00,WUHU216HW,2013-11-11 13:11:00,
2013-11-11 05:16:00,47.0,44.6,30.05,SSE,158,0.9,1.8,91,0.00,,,0.00,WUHU216HW,2013-11-11 13:16:00,
2013-11-11 05:21:00,46.8,44.4,30.05,SSE,158,0.9,1.8,91,0.00,,,0.00,WUHU216HW,2013-11-11 13:21:00,
2013-11-11 05:26:00,46.8,44.4,30.05,SSW,203,0.4,0.9,91,0.00,,,0.00,WUHU216HW,2013-11-11 13:26:00,
2013-11-11 05:31:00,47.0,44.6,30.05,SE,135,0.4,1.1,91,0.00,,,0.00,WUHU216HW,2013-11-11 13:31:00,
2013-11-11 05:36:00,47.0,44.6,30.05,South,180,0.4,1.1,91,0.00,,,0.00,WUHU216HW,2013-11-11 13:36:00,
2013-11-11 05:41:00,47.2,44.7,30.05,SE,135,0.7,1.1,91,0.00,,,0.00,WUHU216HW,2013-11-11 13:41:00,
2013-11-11 05:46:00,47.2,44.7,30.06,SSE,158,0.7,1.1,91,0.00,,,0.00,WUHU216HW,2013-11-11 13:46:00,
2013-11-11 05:51:00,47.3,44.9,30.07,SE,135,1.3,1.3,91,0.00,,,0.00,WUHU216HW,2013-11-11 13:51:00,
2013-11-11 05:56:00,47.5,45.1,30.07,East,90,0.9,1.8,91,0.00,,,0.00,WUHU216HW,2013-11-11 13:56:00,
2013-11-11 06:01:00,47.7,45.3,30.07,East,90,0.0,1.8,91,0.00,,,0.00,WUHU216HW,2013-11-11 14:01:00,
2013-11-11 06:06:00,47.9,45.5,30.07,SSW,203,0.7,0.7,91,0.00,,,0.00,WUHU216HW,2013-11-11 14:06:00,
2013-11-11 06:11:00,47.9,45.5,30.07,South,180,0.4,0.9,91,0.00,,,0.00,WUHU216HW,2013-11-11 14:11:00,
2013-11-11 06:16:00,47.9,45.5,30.07,SSE,158,0.4,1.6,91,0.00,,,0.00,WUHU216HW,2013-11-11 14:16:00,
2013-11-11 06:21:00,47.9,45.5,30.08,SSW,203,0.4,1.6,91,0.00,,,0.00,WUHU216HW,2013-11-11 14:21:00,
2013-11-11 06:26:00,48.1,45.6,30.08,SSW,203,1.1,1.6,91,0.00,,,0.00,WUHU216HW,2013-11-11 14:26:00,
2013-11-11 06:31:00,47.9,45.5,30.08,SSW,203,0.4,1.3,91,0.00,,,0.00,WUHU216HW,2013-11-11 14:31:00,
2013-11-11 06:36:00,47.9,45.5,30.07,South,180,0.0,1.3,91,0.00,,,0.00,WUHU216HW,2013-11-11 14:36:00,
2013-11-11 06:41:00,47.9,45.5,30.07,SSW,203,0.0,0.4,91,0.00,,,0.00,WUHU216HW,2013-11-11 14:41:00,
2013-11-11 06:46:00,48.1,45.6,30.08,WSW,248,0.2,0.4,91,0.00,,,0.00,WUHU216HW,2013-11-11 14:46:00,
2013-11-11 06:51:00,47.9,45.5,30.08,NW,315,0.0,1.1,91,0.00,,,0.00,WUHU216HW,2013-11-11 14:51:00,
2013-11-11 06:56:00,47.9,45.5,30.08,East,90,0.0,1.1,91,0.00,,,0.00,WUHU216HW,2013-11-11 14:56:00,
2013-11-11 07:01:00,47.9,45.5,30.08,East,90,0.4,1.1,91,0.00,,,0.00,WUHU216HW,2013-11-11 15:01:00,
2013-11-11 07:06:00,47.7,45.3,30.08,ENE,68,0.4,0.7,91,0.00,,,0.00,WUHU216HW,2013-11-11 15:06:00,
2013-11-11 07:11:00,47.7,45.3,30.08,East,90,1.1,2.0,91,0.00,,,0.00,WUHU216HW,2013-11-11 15:11:00,
2013-11-11 07:16:00,47.7,45.3,30.08,ESE,113,0.0,2.0,91,0.00,,,0.00,WUHU216HW,2013-11-11 15:16:00,
2013-11-11 07:21:00,47.7,45.3,30.08,ESE,113,0.2,0.9,91,0.00,,,0.00,WUHU216HW,2013-11-11 15:21:00,
2013-11-11 07:26:00,47.7,45.3,30.08,ENE,68,0.0,0.7,91,0.00,,,0.00,WUHU216HW,2013-11-11 15:26:00,
2013-11-11 07:31:00,47.9,45.5,30.08,ENE,68,0.0,0.7,91,0.00,,,0.00,WUHU216HW,2013-11-11 15:31:00,
2013-11-11 07:36:00,47.9,45.5,30.08,South,180,0.9,0.9,91,0.00,,,0.00,WUHU216HW,2013-11-11 15:36:00,
2013-11-11 07:41:00,47.9,45.5,30.08,SW,225,0.0,1.1,91,0.00,,,0.00,WUHU216HW,2013-11-11 15:41:00,
2013-11-11 07:46:00,47.9,45.5,30.09,East,90,0.4,1.1,91,0.00,,,0.00,WUHU216HW,2013-11-11 15:46:00,
2013-11-11 07:51:00,47.9,45.5,30.09,NE,45,1.1,1.1,91,0.00,,,0.00,WUHU216HW,2013-11-11 15:51:00,
2013-11-11 07:56:00,48.1,45.6,30.10,East,90,0.0,1.1,91,0.00,,,0.00,WUHU216HW,2013-11-11 15:56:00,
2013-11-11 08:01:00,48.2,45.8,30.10,East,90,0.4,0.4,91,0.00,,,0.00,WUHU216HW,2013-11-11 16:01:00,
2013-11-11 08:06:00,48.4,46.0,30.10,East,90,0.0,0.4,91,0.00,,,0.00,WUHU216HW,2013-11-11 16:06:00,
2013-11-11 08:11:00,48.6,46.2,30.11,SSW,203,0.2,2.0,91,0.00,,,0.00,WUHU216HW,2013-11-11 16:11:00,
2013-11-11 08:16:00,48.6,46.2,30.10,SE,135,0.0,2.0,91,0.00,,,0.00,WUHU216HW,2013-11-11 16:16:00,
2013-11-11 08:21:00,48.6,46.2,30.10,NNE,23,0.2,0.4,91,0.00,,,0.00,WUHU216HW,2013-11-11 16:21:00,
2013-11-11 08:26:00,48.8,46.3,30.10,East,90,0.4,1.3,91,0.00,,,0.00,WUHU216HW,2013-11-11 16:26:00,
2013-11-11 08:31:00,49.0,46.4,30.10,East,90,0.0,1.3,91,0.00,,,0.00,WUHU216HW,2013-11-11 16:31:00,
2013-11-11 08:36:00,49.0,46.4,30.10,East,90,0.4,0.4,91,0.00,,,0.00,WUHU216HW,2013-11-11 16:36:00,
2013-11-11 08:41:00,49.1,46.6,30.10,ESE,113,0.9,0.9,91,0.00,,,0.00,WUHU216HW,2013-11-11 16:41:00,
2013-11-11 08:46:00,49.3,46.5,30.10,East,90,1.1,1.1,90,0.00,,,0.00,WUHU216HW,2013-11-11 16:46:00,
2013-11-11 08:51:00,49.5,46.7,30.10,East,90,1.8,3.1,90,0.00,,,0.00,WUHU216HW,2013-11-11 16:51:00,
2013-11-11 08:56:00,49.5,46.7,30.10,SE,135,1.8,3.1,90,0.00,,,0.00,WUHU216HW,2013-11-11 16:56:00,
2013-11-11 09:01:00,49.7,46.8,30.10,South,180,0.7,2.7,90,0.00,,,0.00,WUHU216HW,2013-11-11 17:01:00,
2013-11-11 09:06:00,49.7,46.8,30.10,SSW,203,0.4,3.1,90,0.00,,,0.00,WUHU216HW,2013-11-11 17:06:00,
2013-11-11 09:11:00,49.7,46.8,30.10,SE,135,1.1,3.1,90,0.00,,,0.00,WUHU216HW,2013-11-11 17:11:00,
2013-11-11 09:16:00,49.9,46.7,30.10,ESE,113,1.1,2.0,89,0.00,,,0.00,WUHU216HW,2013-11-11 17:16:00,
2013-11-11 09:21:00,49.9,46.7,30.10,ESE,113,1.1,2.0,89,0.00,,,0.00,WUHU216HW,2013-11-11 17:21:00,
2013-11-11 09:26:00,50.0,46.9,30.10,SSW,203,0.0,2.0,89,0.00,,,0.00,WUHU216HW,2013-11-11 17:26:00,
2013-11-11 09:31:00,50.0,46.9,30.10,SSW,203,1.6,2.0,89,0.00,,,0.00,WUHU216HW,2013-11-11 17:31:00,
2013-11-11 09:36:00,50.4,47.3,30.10,SW,225,0.0,1.6,89,0.00,,,0.00,WUHU216HW,2013-11-11 17:36:00,
2013-11-11 09:41:00,50.6,47.1,30.10,East,90,0.4,0.9,88,0.00,,,0.00,WUHU216HW,2013-11-11 17:41:00,
2013-11-11 09:46:00,51.1,48.0,30.10,ESE,113,0.4,1.1,89,0.00,,,0.00,WUHU216HW,2013-11-11 17:46:00,
2013-11-11 09:51:00,51.1,48.0,30.10,WSW,248,0.0,1.1,89,0.00,,,0.00,WUHU216HW,2013-11-11 17:51:00,
2013-11-11 09:56:00,51.7,48.5,30.10,ESE,113,0.9,0.9,89,0.00,,,0.00,WUHU216HW,2013-11-11 17:56:00,
2013-11-11 10:01:00,52.0,48.5,30.10,South,180,0.0,0.9,88,0.00,,,0.00,WUHU216HW,2013-11-11 18:01:00,
2013-11-11 10:06:00,52.7,49.2,30.10,SSW,203,0.7,1.3,88,0.00,,,0.00,WUHU216HW,2013-11-11 18:06:00,
2013-11-11 10:11:00,53.5,49.3,30.10,South,180,0.4,1.3,86,0.00,,,0.00,WUHU216HW,2013-11-11 18:11:00,
2013-11-11 10:16:00,54.0,49.6,30.10,WSW,248,0.7,1.8,85,0.00,,,0.00,WUHU216HW,2013-11-11 18:16:00,
2013-11-11 10:21:00,54.7,50.0,30.10,SSW,203,1.1,1.8,84,0.00,,,0.00,WUHU216HW,2013-11-11 18:21:00,
2013-11-11 10:26:00,55.4,50.0,30.10,SSW,203,1.1,1.8,82,0.00,,,0.00,WUHU216HW,2013-11-11 18:26:00,
2013-11-11 10:31:00,56.2,50.7,30.10,South,180,0.9,1.1,82,0.00,,,0.00,WUHU216HW,2013-11-11 18:31:00,
2013-11-11 10:36:00,56.5,51.0,30.10,SSW,203,0.9,2.2,82,0.00,,,0.00,WUHU216HW,2013-11-11 18:36:00,
2013-11-11 10:41:00,56.9,50.8,30.10,SSW,203,0.0,2.2,80,0.00,,,0.00,WUHU216HW,2013-11-11 18:41:00,
2013-11-11 10:46:00,57.1,50.6,30.10,SE,135,0.7,1.1,79,0.00,,,0.00,WUHU216HW,2013-11-11 18:46:00,
2013-11-11 10:51:00,57.2,50.4,30.10,East,90,1.1,1.3,78,0.00,,,0.00,WUHU216HW,2013-11-11 18:51:00,
2013-11-11 10:56:00,57.8,50.6,30.10,SE,135,1.1,1.3,77,0.00,,,0.00,WUHU216HW,2013-11-11 18:56:00,
2013-11-11 11:01:00,58.3,51.1,30.10,SE,135,2.0,2.0,77,0.00,,,0.00,WUHU216HW,2013-11-11 19:01:00,
2013-11-11 11:06:00,58.7,50.8,30.10,SSW,203,1.1,2.0,75,0.00,,,0.00,WUHU216HW,2013-11-11 19:06:00,
2013-11-11 11:11:00,59.0,50.8,30.10,SSE,158,0.2,1.8,74,0.00,,,0.00,WUHU216HW,2013-11-11 19:11:00,
2013-11-11 11:16:00,59.0,50.8,30.10,SSW,203,0.4,1.8,74,0.00,,,0.00,WUHU216HW,2013-11-11 19:16:00,
2013-11-11 11:21:00,59.4,50.8,30.10,South,180,0.4,1.8,73,0.00,,,0.00,WUHU216HW,2013-11-11 19:21:00,
2013-11-11 11:26:00,59.6,50.9,30.10,South,180,0.7,1.8,73,0.00,,,0.00,WUHU216HW,2013-11-11 19:26:00,
2013-11-11 11:31:00,59.9,51.3,30.10,SW,225,1.3,1.8,73,0.00,,,0.00,WUHU216HW,2013-11-11 19:31:00,
2013-11-11 11:36:00,60.1,50.4,30.10,SSW,203,0.4,2.0,70,0.00,,,0.00,WUHU216HW,2013-11-11 19:36:00,
2013-11-11 11:41:00,60.8,50.7,30.10,SSE,158,1.3,2.0,69,0.00,,,0.00,WUHU216HW,2013-11-11 19:41:00,
2013-11-11 11:46:00,61.2,51.0,30.09,SW,225,0.7,1.6,69,0.00,,,0.00,WUHU216HW,2013-11-11 19:46:00,
2013-11-11 11:51:00,61.6,50.9,30.09,South,180,1.8,2.2,68,0.00,,,0.00,WUHU216HW,2013-11-11 19:51:00,
2013-11-11 11:56:00,61.9,50.1,30.09,North,0,0.9,2.2,65,0.00,,,0.00,WUHU216HW,2013-11-11 19:56:00,
2013-11-11 12:01:00,62.1,51.0,30.09,ESE,113,0.0,2.0,67,0.00,,,0.00,WUHU216HW,2013-11-11 20:01:00,
2013-11-11 12:06:00,62.3,50.0,30.09,WNW,293,1.1,2.5,64,0.00,,,0.00,WUHU216HW,2013-11-11 20:06:00,
2013-11-11 12:11:00,62.5,50.5,30.08,WSW,248,1.1,2.5,65,0.00,,,0.00,WUHU216HW,2013-11-11 20:11:00,
2013-11-11 12:16:00,62.8,50.4,30.08,NW,315,0.9,2.5,64,0.00,,,0.00,WUHU216HW,2013-11-11 20:16:00,
2013-11-11 12:21:00,63.0,50.2,30.08,West,270,1.3,1.8,63,0.00,,,0.00,WUHU216HW,2013-11-11 20:21:00,
2013-11-11 12:26:00,63.4,50.5,30.07,SW,225,0.7,1.3,63,0.00,,,0.00,WUHU216HW,2013-11-11 20:26:00,
2013-11-11 12:31:00,63.7,49.6,30.07,SSW,203,2.2,2.2,60,0.00,,,0.00,WUHU216HW,2013-11-11 20:31:00,
2013-11-11 12:36:00,64.3,50.0,30.08,NW,315,0.7,2.2,60,0.00,,,0.00,WUHU216HW,2013-11-11 20:36:00,
2013-11-11 12:41:00,64.8,50.6,30.07,SW,225,1.6,2.7,60,0.00,,,0.00,WUHU216HW,2013-11-11 20:41:00,
2013-11-11 12:46:00,65.2,50.5,30.07,WSW,248,2.5,3.4,59,0.00,,,0.00,WUHU216HW,2013-11-11 20:46:00,
2013-11-11 12:51:00,65.3,50.7,30.07,WSW,248,1.1,3.4,59,0.00,,,0.00,WUHU216HW,2013-11-11 20:51:00,
2013-11-11 12:56:00,65.5,50.9,30.06,WNW,293,0.4,2.7,59,0.00,,,0.00,WUHU216HW,2013-11-11 20:56:00,
2013-11-11 13:01:00,65.7,51.0,30.06,SW,225,0.9,1.1,59,0.00,,,0.00,WUHU216HW,2013-11-11 21:01:00,
2013-11-11 13:06:00,65.9,51.2,30.06,WSW,248,1.8,2.9,59,0.00,,,0.00,WUHU216HW,2013-11-11 21:06:00,
2013-11-11 13:11:00,66.4,51.2,30.06,WSW,248,0.7,2.9,58,0.00,,,0.00,WUHU216HW,2013-11-11 21:11:00,
2013-11-11 13:16:00,66.8,51.6,30.06,NW,315,2.7,2.9,58,0.00,,,0.00,WUHU216HW,2013-11-11 21:16:00,
2013-11-11 13:21:00,67.3,51.6,30.06,WNW,293,0.4,2.7,57,0.00,,,0.00,WUHU216HW,2013-11-11 21:21:00,
2013-11-11 13:26:00,68.0,52.2,30.05,NW,315,0.4,2.2,57,0.00,,,0.00,WUHU216HW,2013-11-11 21:26:00,
2013-11-11 13:31:00,68.2,51.8,30.05,WNW,293,0.4,2.5,56,0.00,,,0.00,WUHU216HW,2013-11-11 21:31:00,
2013-11-11 13:36:00,68.0,52.2,30.05,WSW,248,1.8,2.5,57,0.00,,,0.00,WUHU216HW,2013-11-11 21:36:00,
2013-11-11 13:41:00,67.9,51.0,30.05,WNW,293,0.0,2.0,55,0.00,,,0.00,WUHU216HW,2013-11-11 21:41:00,
2013-11-11 13:46:00,67.9,51.6,30.05,WSW,248,2.0,2.0,56,0.00,,,0.00,WUHU216HW,2013-11-11 21:46:00,
2013-11-11 13:51:00,68.0,51.2,30.05,WSW,248,1.1,2.5,55,0.00,,,0.00,WUHU216HW,2013-11-11 21:51:00,
2013-11-11 13:56:00,68.2,51.4,30.05,WSW,248,1.3,2.5,55,0.00,,,0.00,WUHU216HW,2013-11-11 21:56:00,
2013-11-11 14:01:00,68.2,51.4,30.05,NW,315,0.7,1.8,55,0.00,,,0.00,WUHU216HW,2013-11-11 22:01:00,
2013-11-11 14:06:00,68.2,51.4,30.05,NNE,23,0.9,0.9,55,0.00,,,0.00,WUHU216HW,2013-11-11 22:06:00,
2013-11-11 14:11:00,68.4,51.0,30.05,WNW,293,2.9,3.4,54,0.00,,,0.00,WUHU216HW,2013-11-11 22:11:00,
2013-11-11 14:16:00,68.4,51.0,30.05,WSW,248,1.6,3.4,54,0.00,,,0.00,WUHU216HW,2013-11-11 22:16:00,
2013-11-11 14:21:00,68.6,51.2,30.05,North,0,0.2,1.6,54,0.00,,,0.00,WUHU216HW,2013-11-11 22:21:00,
2013-11-11 14:26:00,68.4,50.6,30.05,West,270,1.1,1.3,53,0.00,,,0.00,WUHU216HW,2013-11-11 22:26:00,
2013-11-11 14:31:00,68.2,50.4,30.05,SW,225,3.4,3.6,53,0.00,,,0.00,WUHU216HW,2013-11-11 22:31:00,
2013-11-11 14:36:00,68.0,50.8,30.05,WNW,293,0.4,3.6,54,0.00,,,0.00,WUHU216HW,2013-11-11 22:36:00,
2013-11-11 14:41:00,67.7,50.4,30.05,NW,315,1.3,2.9,54,0.00,,,0.00,WUHU216HW,2013-11-11 22:41:00,
2013-11-11 14:46:00,67.5,50.2,30.05,NNW,338,0.4,2.9,54,0.00,,,0.00,WUHU216HW,2013-11-11 22:46:00,
2013-11-11 14:51:00,67.3,50.0,30.05,SW,225,0.4,1.8,54,0.00,,,0.00,WUHU216HW,2013-11-11 22:51:00,
2013-11-11 14:56:00,67.0,49.2,30.05,WNW,293,1.6,2.5,53,0.00,,,0.00,WUHU216HW,2013-11-11 22:56:00,
2013-11-11 15:01:00,66.8,49.6,30.05,West,270,2.9,3.1,54,0.00,,,0.00,WUHU216HW,2013-11-11 23:01:00,
2013-11-11 15:06:00,66.6,49.4,30.05,NW,315,0.4,3.4,54,0.00,,,0.00,WUHU216HW,2013-11-11 23:06:00,
2013-11-11 15:11:00,66.4,49.8,30.05,North,0,0.0,3.4,55,0.00,,,0.00,WUHU216HW,2013-11-11 23:11:00,
2013-11-11 15:16:00,66.4,49.8,30.05,WNW,293,0.0,1.3,55,0.00,,,0.00,WUHU216HW,2013-11-11 23:16:00,
2013-11-11 15:21:00,66.2,49.6,30.05,WNW,293,0.4,0.9,55,0.00,,,0.00,WUHU216HW,2013-11-11 23:21:00,
2013-11-11 15:26:00,66.1,49.4,30.05,NNW,338,0.9,0.9,55,0.00,,,0.00,WUHU216HW,2013-11-11 23:26:00,
2013-11-11 15:31:00,65.9,49.2,30.05,West,270,1.8,2.0,55,0.00,,,0.00,WUHU216HW,2013-11-11 23:31:00,
2013-11-11 15:36:00,65.7,49.1,30.05,WNW,293,0.4,2.9,55,0.00,,,0.00,WUHU216HW,2013-11-11 23:36:00,
2013-11-11 15:41:00,65.7,49.5,30.06,NW,315,0.0,2.9,56,0.00,,,0.00,WUHU216HW,2013-11-11 23:41:00,
2013-11-11 15:46:00,65.5,49.3,30.06,SW,225,0.0,2.2,56,0.00,,,0.00,WUHU216HW,2013-11-11 23:46:00,
2013-11-11 15:51:00,65.3,49.1,30.05,North,0,0.7,2.2,56,0.00,,,0.00,WUHU216HW,2013-11-11 23:51:00,
2013-11-11 15:56:00,65.3,49.1,30.06,WNW,293,0.0,2.2,56,0.00,,,0.00,WUHU216HW,2013-11-11 23:56:00,
2013-11-11 16:01:00,65.3,49.1,30.05,NW,315,0.4,1.8,56,0.00,,,0.00,WUHU216HW,2013-11-12 00:01:00,
2013-11-11 16:06:00,65.2,49.0,30.05,NNW,338,0.7,1.6,56,0.00,,,0.00,WUHU216HW,2013-11-12 00:06:00,
2013-11-11 16:11:00,65.2,48.5,30.06,NNW,338,0.4,1.8,55,0.00,,,0.00,WUHU216HW,2013-11-12 00:11:00,
2013-11-11 16:16:00,65.2,49.0,30.06,West,270,0.4,1.8,56,0.00,,,0.00,WUHU216HW,2013-11-12 00:16:00,
2013-11-11 16:21:00,65.2,49.5,30.07,WNW,293,1.8,1.8,57,0.00,,,0.00,WUHU216HW,2013-11-12 00:21:00,
2013-11-11 16:26:00,65.0,49.3,30.07,WNW,293,0.0,1.8,57,0.00,,,0.00,WUHU216HW,2013-11-12 00:26:00,
2013-11-11 16:31:00,64.8,48.6,30.08,WNW,293,1.8,1.8,56,0.00,,,0.00,WUHU216HW,2013-11-12 00:31:00,
2013-11-11 16:36:00,64.6,48.4,30.07,WNW,293,0.4,1.8,56,0.00,,,0.00,WUHU216HW,2013-11-12 00:36:00,
2013-11-11 16:41:00,64.4,48.8,30.07,NW,315,0.0,0.9,57,0.00,,,0.00,WUHU216HW,2013-11-12 00:41:00,
2013-11-11 16:46:00,64.1,48.4,30.06,North,0,0.0,0.4,57,0.00,,,0.00,WUHU216HW,2013-11-12 00:46:00,
2013-11-11 16:51:00,63.7,48.6,30.06,North,0,0.0,0.7,58,0.00,,,0.00,WUHU216HW,2013-11-12 00:51:00,
2013-11-11 16:56:00,63.4,48.8,30.07,North,0,0.0,0.7,59,0.00,,,0.00,WUHU216HW,2013-11-12 00:56:00,
2013-11-11 17:01:00,63.0,48.4,30.06,NNE,23,0.9,0.9,59,0.00,,,0.00,WUHU216HW,2013-11-12 01:01:00,
2013-11-11 17:06:00,62.5,48.4,30.06,NNE,23,0.4,0.9,60,0.00,,,0.00,WUHU216HW,2013-11-12 01:06:00,
2013-11-11 17:11:00,62.1,48.2,30.06,NNE,23,0.4,0.9,60,0.00,,,0.00,WUHU216HW,2013-11-12 01:11:00,
2013-11-11 17:16:00,61.7,48.3,30.06,NNE,23,0.0,0.9,61,0.00,,,0.00,WUHU216HW,2013-11-12 01:16:00,
2013-11-11 17:21:00,61.6,48.4,30.05,NNE,23,0.0,0.0,62,0.00,,,0.00,WUHU216HW,2013-11-12 01:21:00,
2013-11-11 17:26:00,61.2,48.2,30.06,NNE,23,0.0,0.0,62,0.00,,,0.00,WUHU216HW,2013-11-12 01:26:00,
2013-11-11 17:31:00,61.0,48.4,30.06,NNE,23,0.0,0.0,63,0.00,,,0.00,WUHU216HW,2013-11-12 01:31:00,
2013-11-11 17:36:00,60.8,48.3,30.06,NNE,23,0.0,0.0,63,0.00,,,0.00,WUHU216HW,2013-11-12 01:36:00,
2013-11-11 17:41:00,60.5,48.2,30.06,NE,45,0.4,0.9,64,0.00,,,0.00,WUHU216HW,2013-11-12 01:41:00,
2013-11-11 17:46:00,60.3,48.1,30.06,NE,45,0.0,0.9,64,0.00,,,0.00,WUHU216HW,2013-11-12 01:46:00,
2013-11-11 17:51:00,60.1,47.9,30.07,NE,45,0.0,0.0,64,0.00,,,0.00,WUHU216HW,2013-11-12 01:51:00,
2013-11-11 17:56:00,59.8,47.5,30.07,NE,45,0.0,0.0,64,0.00,,,0.00,WUHU216HW,2013-11-12 01:56:00,
2013-11-11 18:01:00,59.6,47.3,30.07,NE,45,0.0,0.0,64,0.00,,,0.00,WUHU216HW,2013-11-12 02:01:00,
2013-11-11 18:06:00,59.4,47.6,30.07,NE,45,0.0,0.4,65,0.00,,,0.00,WUHU216HW,2013-11-12 02:06:00,
2013-11-11 18:11:00,59.0,47.7,30.07,NE,45,0.2,0.4,66,0.00,,,0.00,WUHU216HW,2013-11-12 02:11:00,
2013-11-11 18:16:00,58.9,47.5,30.08,NE,45,0.4,0.7,66,0.00,,,0.00,WUHU216HW,2013-11-12 02:16:00,
2013-11-11 18:21:00,58.7,47.4,30.08,NE,45,0.4,0.9,66,0.00,,,0.00,WUHU216HW,2013-11-12 02:21:00,
2013-11-11 18:26:00,58.5,47.2,30.08,NE,45,0.0,0.9,66,0.00,,,0.00,WUHU216HW,2013-11-12 02:26:00,
2013-11-11 18:31:00,58.3,47.3,30.08,NE,45,0.2,0.4,67,0.00,,,0.00,WUHU216HW,2013-11-12 02:31:00,
2013-11-11 18:36:00,58.1,47.3,30.08,NE,45,0.0,0.4,67,0.00,,,0.00,WUHU216HW,2013-11-12 02:36:00,
2013-11-11 18:41:00,58.0,47.1,30.09,NE,45,0.0,0.4,67,0.00,,,0.00,WUHU216HW,2013-11-12 02:41:00,
2013-11-11 18:46:00,57.8,47.3,30.09,NE,45,0.0,0.4,68,0.00,,,0.00,WUHU216HW,2013-11-12 02:46:00,
2013-11-11 18:51:00,57.6,47.1,30.09,NE,45,0.0,0.4,68,0.00,,,0.00,WUHU216HW,2013-11-12 02:51:00,
2013-11-11 18:56:00,57.4,46.9,30.10,NE,45,0.0,0.0,68,0.00,,,0.00,WUHU216HW,2013-11-12 02:56:00,
2013-11-11 19:01:00,57.4,46.9,30.10,NE,45,0.0,0.0,68,0.00,,,0.00,WUHU216HW,2013-11-12 03:01:00,
2013-11-11 19:06:00,57.2,47.2,30.10,NE,45,0.0,0.4,69,0.00,,,0.00,WUHU216HW,2013-11-12 03:06:00,
2013-11-11 19:11:00,57.1,47.0,30.10,NE,45,0.0,0.4,69,0.00,,,0.00,WUHU216HW,2013-11-12 03:11:00,
2013-11-11 19:16:00,56.7,47.1,30.10,NE,45,0.0,0.0,70,0.00,,,0.00,WUHU216HW,2013-11-12 03:16:00,
2013-11-11 19:21:00,56.5,46.9,30.10,NNE,23,0.0,0.4,70,0.00,,,0.00,WUHU216HW,2013-11-12 03:21:00,
2013-11-11 19:26:00,56.3,46.7,30.11,NNE,23,0.2,0.4,70,0.00,,,0.00,WUHU216HW,2013-11-12 03:26:00,
2013-11-11 19:31:00,56.3,47.1,30.11,NNE,23,0.0,0.2,71,0.00,,,0.00,WUHU216HW,2013-11-12 03:31:00,
2013-11-11 19:36:00,56.2,46.9,30.11,NNE,23,0.0,0.4,71,0.00,,,0.00,WUHU216HW,2013-11-12 03:36:00,
2013-11-11 19:41:00,56.0,47.1,30.12,NNE,23,0.0,0.4,72,0.00,,,0.00,WUHU216HW,2013-11-12 03:41:00,
2013-11-11 19:46:00,55.8,46.9,30.12,NNE,23,0.4,0.4,72,0.00,,,0.00,WUHU216HW,2013-11-12 03:46:00,
2013-11-11 19:51:00,55.8,47.3,30.12,NE,45,0.4,0.4,73,0.00,,,0.00,WUHU216HW,2013-11-12 03:51:00,
2013-11-11 19:56:00,55.8,47.3,30.11,NE,45,0.4,0.9,73,0.00,,,0.00,WUHU216HW,2013-11-12 03:56:00,
2013-11-11 20:01:00,55.8,47.3,30.12,NE,45,0.0,0.9,73,0.00,,,0.00,WUHU216HW,2013-11-12 04:01:00,
2013-11-11 20:06:00,55.8,47.3,30.12,North,0,0.0,0.4,73,0.00,,,0.00,WUHU216HW,2013-11-12 04:06:00,
2013-11-11 20:11:00,55.6,47.4,30.12,East,90,0.4,2.0,74,0.00,,,0.00,WUHU216HW,2013-11-12 04:11:00,
2013-11-11 20:16:00,55.6,47.4,30.12,WNW,293,0.9,2.0,74,0.00,,,0.00,WUHU216HW,2013-11-12 04:16:00,
2013-11-11 20:21:00,55.6,47.4,30.12,West,270,0.0,1.1,74,0.00,,,0.00,WUHU216HW,2013-11-12 04:21:00,
2013-11-11 20:26:00,55.4,47.6,30.12,West,270,0.0,1.1,75,0.00,,,0.00,WUHU216HW,2013-11-12 04:26:00,
2013-11-11 20:31:00,55.4,47.6,30.12,NNE,23,0.7,0.9,75,0.00,,,0.00,WUHU216HW,2013-11-12 04:31:00,
2013-11-11 20:36:00,55.3,47.4,30.11,NNE,23,0.0,0.9,75,0.00,,,0.00,WUHU216HW,2013-11-12 04:36:00,
2013-11-11 20:41:00,55.1,47.6,30.11,NNE,23,0.0,0.7,76,0.00,,,0.00,WUHU216HW,2013-11-12 04:41:00,
2013-11-11 20:46:00,55.1,47.6,30.11,ENE,68,0.4,0.9,76,0.00,,,0.00,WUHU216HW,2013-11-12 04:46:00,
2013-11-11 20:51:00,54.9,47.4,30.11,ENE,68,0.0,0.9,76,0.00,,,0.00,WUHU216HW,2013-11-12 04:51:00,
2013-11-11 20:56:00,54.7,47.3,30.11,ENE,68,0.0,0.7,76,0.00,,,0.00,WUHU216HW,2013-11-12 04:56:00,
2013-11-11 21:01:00,54.7,47.3,30.11,ENE,68,0.0,0.0,76,0.00,,,0.00,WUHU216HW,2013-11-12 05:01:00,
2013-11-11 21:06:00,54.5,47.4,30.11,ENE,68,0.0,0.0,77,0.00,,,0.00,WUHU216HW,2013-11-12 05:06:00,
2013-11-11 21:11:00,54.4,47.0,30.11,ENE,68,0.0,0.0,76,0.00,,,0.00,WUHU216HW,2013-11-12 05:11:00,
2013-11-11 21:16:00,54.2,47.2,30.11,ENE,68,0.2,0.4,77,0.00,,,0.00,WUHU216HW,2013-11-12 05:16:00,
2013-11-11 21:21:00,54.0,47.0,30.11,ENE,68,0.4,0.4,77,0.00,,,0.00,WUHU216HW,2013-11-12 05:21:00,
2013-11-11 21:26:00,54.0,47.0,30.12,ENE,68,0.7,0.9,77,0.00,,,0.00,WUHU216HW,2013-11-12 05:26:00,
2013-11-11 21:31:00,53.8,47.2,30.12,ENE,68,0.4,0.9,78,0.00,,,0.00,WUHU216HW,2013-11-12 05:31:00,
2013-11-11 21:36:00,53.6,47.0,30.12,ENE,68,0.0,0.4,78,0.00,,,0.00,WUHU216HW,2013-11-12 05:36:00,
2013-11-11 21:41:00,53.6,47.0,30.12,ENE,68,0.4,0.4,78,0.00,,,0.00,WUHU216HW,2013-11-12 05:41:00,
2013-11-11 21:46:00,53.6,47.0,30.12,ENE,68,0.2,0.4,78,0.00,,,0.00,WUHU216HW,2013-11-12 05:46:00,
2013-11-11 21:51:00,53.6,47.0,30.12,ENE,68,0.2,0.4,78,0.00,,,0.00,WUHU216HW,2013-11-12 05:51:00,
2013-11-11 21:56:00,53.6,47.0,30.12,ENE,68,0.0,0.2,78,0.00,,,0.00,WUHU216HW,2013-11-12 05:56:00,
2013-11-11 22:01:00,53.5,47.2,30.12,ENE,68,0.2,0.4,79,0.00,,,0.00,WUHU216HW,2013-11-12 06:01:00,
2013-11-11 22:06:00,53.5,47.2,30.12,ENE,68,0.0,0.4,79,0.00,,,0.00,WUHU216HW,2013-11-12 06:06:00,
2013-11-11 22:11:00,53.5,47.2,30.12,ENE,68,0.0,0.4,79,0.00,,,0.00,WUHU216HW,2013-11-12 06:11:00,
2013-11-11 22:17:00,53.5,47.2,30.12,ENE,68,0.0,0.0,79,0.00,,,0.00,WUHU216HW,2013-11-12 06:17:00,
2013-11-11 22:22:00,53.5,47.2,30.12,ENE,68,0.2,0.2,79,0.00,,,0.00,WUHU216HW,2013-11-12 06:22:00,
2013-11-11 22:27:00,53.5,47.5,30.12,ENE,68,0.0,0.4,80,0.00,,,0.00,WUHU216HW,2013-11-12 06:27:00,
2013-11-11 22:32:00,53.3,47.3,30.11,ENE,68,0.0,0.4,80,0.00,,,0.00,WUHU216HW,2013-11-12 06:32:00,
2013-11-11 22:37:00,53.3,47.3,30.11,ENE,68,0.0,0.4,80,0.00,,,0.00,WUHU216HW,2013-11-12 06:37:00,
2013-11-11 22:42:00,53.3,47.3,30.11,ENE,68,0.0,0.4,80,0.00,,,0.00,WUHU216HW,2013-11-12 06:42:00,
2013-11-11 22:47:00,53.3,47.3,30.11,ENE,68,0.0,0.4,80,0.00,,,0.00,WUHU216HW,2013-11-12 06:47:00,
2013-11-11 22:52:00,53.3,47.3,30.11,North,0,0.0,0.0,80,0.00,,,0.00,WUHU216HW,2013-11-12 06:52:00,
2013-11-11 22:56:00,53.3,47.3,30.11,North,0,0.0,0.0,80,0.00,,,0.00,WUHU216HW,2013-11-12 06:56:00,
2013-11-11 23:01:00,53.3,47.3,30.11,North,0,0.4,0.4,80,0.00,,,0.00,WUHU216HW,2013-11-12 07:01:00,
2013-11-11 23:06:00,53.5,47.5,30.11,NE,45,1.1,1.1,80,0.00,,,0.00,WUHU216HW,2013-11-12 07:06:00,
2013-11-11 23:11:00,53.5,47.8,30.11,SSW,203,0.4,2.0,81,0.00,,,0.00,WUHU216HW,2013-11-12 07:11:00,
2013-11-11 23:16:00,53.6,48.0,30.12,SSW,203,0.0,2.0,81,0.00,,,0.00,WUHU216HW,2013-11-12 07:16:00,
2013-11-11 23:21:00,53.6,48.0,30.11,SSW,203,0.0,0.4,81,0.00,,,0.00,WUHU216HW,2013-11-12 07:21:00,
2013-11-11 23:26:00,53.6,48.0,30.12,SW,225,0.0,0.4,81,0.00,,,0.00,WUHU216HW,2013-11-12 07:26:00,
2013-11-11 23:31:00,53.6,47.7,30.12,SW,225,0.0,0.4,80,0.00,,,0.00,WUHU216HW,2013-11-12 07:31:00,
2013-11-11 23:36:00,53.6,48.0,30.12,NW,315,0.0,0.7,81,0.00,,,0.00,WUHU216HW,2013-11-12 07:36:00,
2013-11-11 23:41:00,53.6,48.0,30.12,NW,315,0.2,0.7,81,0.00,,,0.00,WUHU216HW,2013-11-12 07:41:00,
2013-11-11 23:46:00,53.6,48.0,30.12,NNE,23,0.2,0.9,81,0.00,,,0.00,WUHU216HW,2013-11-12 07:46:00,
2013-11-11 23:51:00,53.6,48.0,30.13,ENE,68,0.7,1.1,81,0.00,,,0.00,WUHU216HW,2013-11-12 07:51:00,
2013-11-11 23:56:00,53.6,48.0,30.13,ENE,68,0.7,1.1,81,0.00,,,0.00,WUHU216HW,2013-11-12 07:56:00,